This is the latest recevied weather packets stored in our database for station/object 9W2GDL-10. If no packets are shown the sender has not sent any weather packets the latest 10 day(s).
| Time | Temp. | Humidity | Pressure | Rain* | Wind** | Luminosity | Snow |
|---|---|---|---|---|---|---|---|
| 1787594667 | 32.78° C | 58% | 1011.8 hPa | - | - | - | - |
| 1787594066 | 32.22° C | 59% | 1011.9 hPa | - | - | - | - |
| 1787593466 | 32.22° C | 58% | 1012.1 hPa | - | - | - | - |
| 1787592865 | 32.22° C | 58% | 1012.4 hPa | - | - | - | - |
| 1787592264 | 32.22° C | 59% | 1012.6 hPa | - | - | - | - |
| 1787591663 | 32.78° C | 58% | 1012.8 hPa | - | - | - | - |
| 1787591062 | 32.22° C | 58% | 1012.9 hPa | - | - | - | - |
| 1787590462 | 32.78° C | 58% | 1012.8 hPa | - | - | - | - |
| 1787589861 | 32.78° C | 58% | 1012.9 hPa | - | - | - | - |
| 1787589260 | 32.78° C | 57% | 1013.1 hPa | - | - | - | - |
| 1787588659 | 32.78° C | 58% | 1013.2 hPa | - | - | - | - |
| 1787588058 | 32.78° C | 57% | 1013.2 hPa | - | - | - | - |
| 1787587458 | 33.33° C | 56% | 1013.4 hPa | - | - | - | - |
| 1787586857 | 33.33° C | 55% | 1013.4 hPa | - | - | - | - |
| 1787586256 | 31.67° C | 64% | 1013.5 hPa | - | - | - | - |
| 1787585655 | 31.67° C | 65% | 1013.5 hPa | - | - | - | - |
| 1787585055 | 32.22° C | 65% | 1013.6 hPa | - | - | - | - |
| 1787584454 | 32.22° C | 65% | 1013.8 hPa | - | - | - | - |
| 1787583853 | 32.78° C | 64% | 1013.8 hPa | - | - | - | - |
| 1787583252 | 32.22° C | 65% | 1013.6 hPa | - | - | - | - |
| 1787582651 | 32.22° C | 65% | 1013.5 hPa | - | - | - | - |
| 1787582049 | 32.22° C | 64% | 1013.2 hPa | - | - | - | - |
| 1787581448 | 32.22° C | 65% | 1012.7 hPa | - | - | - | - |
| 1787580847 | 32.22° C | 66% | 1012.7 hPa | - | - | - | - |
| 1787580765 | 31.11° C | 68% | 1012.6 hPa | - | - | - | - |
* Rain since midnight (hover to see other rain measurements)
** Current wind speed in m/s (hover to see current wind gust speed)